Location: Mesa Verde
(33.6055°N, 114.7275°W)
Time: 12:46:27
(UTC+00:00)

ISS - Pass Details

Date: 04 October 2021
Orbit: 417 x 423 km, 51.6° (Epoch: 26 October)

Event Time Altitude Azimuth Distance (km) Brightness Sun altitude
Rises 02:05:09 0° 329° (NNW) 2,362 0.5 -10.2°
Reaches altitude 10° 02:08:04 10° 357° (N) 1,497 -0.9 -10.8°
Maximum altitude 02:09:53 14° 30° (NNE) 1,288 -1.6 -11.2°
Enters shadow 02:11:03 12° 52° (NE) 1,378 -1.6 -11.5°
